[[{"header":{"parameterUnit":"m.s-1","parameterCategory":1,"la1":30.2991,"la2":30.254,"lo1":-89.0895,"lo2":-89.0444,"dx":0.0017,"dy":0.0017,"nx":28,"ny":28,"refTime":"2023-01-27T09:00:00:Z","depth":0,"parameterNumber":2,"parameterNumberName":"U-component_of_WINDS"},"data":[0,0,0,0,0,0,0,0,0,0,0,0,0,0,0,0,0,0,0,0,0,0,0,0,0,0,0,0,0,0,0,0,0,0,0,0,0,0,0,0,0,0,0,0,0,0,0,0,0,0,0,0,0,0,0,0,0,0,-4.3681,-4.3681,0,-4.3733,-4.3734,-4.3735,-4.3656,-4.3653,-4.3651,-4.3648,-4.3699,-4.3703,-4.3707,0,0,0,0,0,0,0,0,0,0,0,0,0,-4.3511,-4.3515,-4.3681,-4.3681,-4.3682,-4.3733,-4.3734,-4.3735,-4.3657,-4.3653,-4.365,-4.3647,-4.3698,-4.3703,-4.3707,0,0,0,0,0,0,0,0,0,0,0,0,0,-4.3577,-4.3516,-4.3681,-4.3649,-4.3647,-4.3733,-4.3734,-4.3735,-4.3657,-4.3653,-4.3649,-4.3645,-4.3696,-4.3702,-4.3708,-4.3826,0,0,-4.3726,-4.3728,0,0,0,0,0,0,0,0,-4.3573,-4.3583,-4.3653,-4.3652,-4.3649,-4.3684,-4.3693,-4.3765,-4.3658,-4.3653,-4.3648,-4.3643,-4.3697,-4.3703,-4.3722,-4.3829,-4.3831,-4.3726,-4.373,-4.3732,-4.3734,0,0,0,0,0,0,0,-4.3569,-4.358,-4.3701,-4.3654,-4.3652,-4.3632,-4.3637,-4.3706,-4.3698,-4.3653,-4.3648,-4.3655,-4.3695,-4.3716,-4.3722,-4.3832,-4.3726,-4.3731,-4.3735,-4.3737,-4.4039,-4.4043,0,0,0,0,0,0,-4.3568,-4.3577,-4.37,-4.3703,-4.36,-4.3639,-4.3644,-4.3677,-4.3697,-4.3696,-4.3659,-4.3651,-4.3708,-4.3715,-4.3724,-4.3863,-4.3732,-4.3738,-4.3741,-4.4035,-4.404,-4.4045,0,0,0,0,0,0,-4.3565,-4.358,-4.3698,-4.3639,-4.3652,-4.3646,-4.3684,-4.368,-4.3701,-4.3701,-4.3699,-4.3682,-4.3705,-4.3715,-4.3802,-4.3864,-4.3741,-4.3746,-4.4029,-4.4036,-4.4043,-4.4144,0,0,0,0,0,0,-4.356,-4.3579,-4.3624,-4.364,-4.3656,-4.3775,-4.3688,-4.3684,-4.3711,-4.3702,-4.3722,-4.3721,-4.3703,-4.3793,-4.3808,-4.387,-4.375,-4.4024,-4.4033,-4.404,-4.4135,-4.4153,-4.4169,0,0,0,0,0,-4.3555,-4.365,-4.3627,-4.3642,-4.3712,-4.3779,-4.3788,-4.3766,-4.3717,-4.3762,-4.3762,-4.372,-4.3856,-4.3803,-4.3818,-4.3883,-4.402,-4.403,-4.404,-4.4127,-4.4149,-4.4168,0,0,0,0,0,0,-4.3639,-4.3651,-4.3626,-4.3729,-4.3754,-4.3766,-4.3821,-4.379,-4.3828,-4.3818,-4.3789,-4.3794,-4.3886,-4.3894,-4.3835,-4.3999,-4.3929,-4.3943,-4.399,-4.4012,-4.4028,-4.4023,-4.3755,0,0,0,0,0,-4.367,-4.3725,-4.3732,-4.3822,-4.3836,-4.3827,-4.3856,-4.3837,-4.3861,-4.3871,-4.3877,-4.3901,-4.3949,-4.3981,-4.4025,-4.4137,-4.4139,-4.4189,-4.4206,-4.422,-4.4231,-4.429,-4.4312,-4.4078,-4.4078,-4.4078,0,0,-4.3734,-4.3747,-4.3783,-4.384,-4.3856,-4.3913,-4.3836,-4.3899,-4.394,-4.388,-4.3961,-4.3968,-4.3993,-4.4092,-4.4136,-4.4101,-4.4297,-4.4233,-4.4244,-4.4248,-4.4303,-4.4325,-4.4345,-4.4085,-4.4084,-4.4083,0,0,-4.3879,-4.3895,-4.3972,-4.3991,-4.4019,-4.4013,-4.4032,-4.4049,-4.4051,-4.4133,-4.4089,-4.4138,-4.4222,-4.4241,-4.4263,-4.4419,-4.4381,-4.4434,-4.4522,-4.458,-4.4598,-4.4615,-4.4669,-4.4689,-4.4446,-4.4446,-4.4446,0,-4.3954,-4.4038,-4.4015,-4.4082,-4.4108,-4.4058,-4.4136,-4.4156,-4.4196,-4.4215,-4.4176,-4.428,-4.4294,-4.4397,-4.4435,-4.4455,-4.4475,-4.443,-4.4598,-4.4614,-4.4628,-4.468,-4.4701,-4.4452,-4.4452,-4.4451,-4.445,0,-4.4129,-4.4188,-4.4247,-4.4288,-4.4321,-4.4393,-4.4381,-4.4418,-4.4398,-4.4396,-4.448,-4.4496,-4.4542,-4.4566,-4.4546,-4.4667,-4.4644,-4.4603,-4.4531,-4.4657,-4.4705,-4.4725,-4.4461,-4.4459,-4.4457,-4.4456,0,0,-4.4324,-4.4355,-4.4377,-4.4395,-4.4424,-4.4468,-4.4539,-4.4586,-4.4617,-4.4648,-4.4705,-4.4778,-4.474,-4.4764,-4.4747,-4.4798,-4.492,-4.475,-4.475,-4.4779,-4.5054,-4.5083,-4.5107,-4.4897,-4.4901,-4.4904,-4.5051,0,-4.4467,-4.4588,-4.4572,-4.4688,-4.4742,-4.4698,-4.4759,-4.4783,-4.4784,-4.483,-4.4831,-4.4883,-4.4829,-4.4844,-4.4893,-4.4895,-4.4974,-4.4884,-4.4949,-4.4951,-4.4941,-4.5132,-4.5163,-4.5301,-4.507,-4.5073,-4.5075,0,-4.4649,-4.4688,-4.481,-4.4831,-4.4853,-4.4909,-4.4951,-4.4996,-4.5023,-4.502,-4.5049,-4.5023,-4.5093,-4.5023,-4.5119,-4.5058,-4.5084,-4.509,-4.5095,-4.5097,-4.5019,-4.5138,-4.5344,-4.5364,-4.5105,-4.5102,-4.51,0,-4.4777,-4.486,-4.4944,-4.4962,-4.4989,-4.5029,-4.5042,-4.5065,-4.5095,-4.5132,-4.5151,-4.5197,-4.5221,-4.5256,-4.5243,-4.5194,-4.5342,-4.5271,-4.534,-4.534,-4.537,-4.5368,-4.5581,-4.5392,-4.5391,-4.5391,-4.5391,0,-4.4937,-4.5013,-4.5002,-4.5053,-4.5138,-4.5119,-4.5203,-4.5211,-4.5232,-4.5284,-4.5249,-4.5298,-4.5279,-4.5328,-4.5318,-4.5399,-4.5411,-4.5409,-4.5405,-4.5411,-4.5411,-4.5425,-4.5414,-4.5396,-4.5395,-4.5394,-4.5393,0,-4.5092,-4.5089,-4.5177,-4.5197,-4.5204,-4.5265,-4.5282,-4.533,-4.533,-4.5396,-4.5411,-4.541,-4.5466,-4.5457,-4.5518,-4.5512,-4.5612,-4.5598,-4.5603,-4.5599,-4.5668,-4.566,-4.5895,-4.5925,-4.5719,-4.5721,-4.5722,0,-4.5193,-4.525,-4.5278,-4.5311,-4.5327,-4.5381,-4.5412,-4.5397,-4.543,-4.5467,-4.5511,-4.5563,-4.5604,-4.5695,-4.5699,-4.5746,-4.5731,-4.5811,-4.5738,-4.5742,-4.573,-4.5726,-4.5731,-4.5824,-4.5826,-4.5828,-4.583,0,-4.5371,-4.5367,-4.5413,-4.5461,-4.5499,-4.5535,-4.5567,-4.5596,-4.5584,-4.5624,-4.568,-4.5713,-4.5777,-4.5829,-4.5874,-4.5886,-4.5856,-4.5854,-4.5872,-4.5876,-4.5876,-4.5875,-4.5639,-4.5847,-4.5845,-4.5844,-4.5843,-4.5842,-4.55,-4.555,-4.5577,-4.5631,-4.5654,-4.5686,-4.5732,-4.574,-4.5787,-4.5838,-4.5827,-4.5891,-4.5918,-4.5975,-4.5994,-4.6044,-4.6014,-4.6041,-4.6047,-4.6053,-4.606,-4.5871,-4.6052,-4.6051,-4.6051,-4.6051,-4.605,0,-4.5675,-4.5691,-4.5741,-4.5788,-4.5831,-4.5802,-4.5837,-4.5873,-4.5931,-4.5959,-4.6001,-4.6067,-4.6119,-4.6129,-4.6178,-4.6216,-4.6204,-4.6229,-4.6225,-4.6228,-4.6085,-4.6063,-4.6239,-4.6239,-4.6239,-4.6239,-4.6239,-4.6239,-4.577,-4.5852,-4.5853,-4.5946,-4.5962,-4.6026,-4.6048,-4.6077,-4.61,-4.6176,-4.6219,-4.6226,-4.6248,-4.6299,-4.6345,-4.6347,-4.6365,-4.6396,-4.6392,-4.6257,-4.6238,-4.622,-4.62,-4.6401,-4.6401,-4.6531,-4.6532,-4.6533]},{"header":{"parameterUnit":"m.s-1","parameterCategory":1,"la1":30.2991,"la2":30.254,"lo1":-89.0895,"lo2":-89.0444,"dx":0.0017,"dy":0.0017,"nx":28,"ny":28,"refTime":"2023-01-27T09:00:00:Z","depth":0,"parameterNumber":3,"parameterNumberName":"V-component_of_WINDS"},"data":[0,0,0,0,0,0,0,0,0,0,0,0,0,0,0,0,0,0,0,0,0,0,0,0,0,0,0,0,0,0,0,0,0,0,0,0,0,0,0,0,0,0,0,0,0,0,0,0,0,0,0,0,0,0,0,0,0,0,0.9799,0.9799,0,0.9804,0.9804,0.9804,0.9752,0.9751,0.975,0.9748,0.9752,0.9754,0.9755,0,0,0,0,0,0,0,0,0,0,0,0,0,0.9748,0.9749,0.9799,0.9799,0.9799,0.9804,0.9804,0.9804,0.9753,0.9751,0.9749,0.9748,0.9752,0.9754,0.9755,0,0,0,0,0,0,0,0,0,0,0,0,0,0.9763,0.9749,0.9799,0.9774,0.9772,0.9804,0.9804,0.9804,0.9753,0.9751,0.9749,0.9747,0.9751,0.9754,0.9756,0.9811,0,0,0.9762,0.9763,0,0,0,0,0,0,0,0,0.9762,0.9765,0.9778,0.9776,0.9774,0.9775,0.9787,0.9806,0.9754,0.976,0.9748,0.9746,0.9762,0.9763,0.9768,0.9811,0.9811,0.9762,0.9764,0.9765,0.9765,0,0,0,0,0,0,0,0.9761,0.9764,0.9801,0.9778,0.9775,0.9763,0.9763,0.979,0.9773,0.9759,0.9756,0.9757,0.976,0.9766,0.9768,0.9811,0.9762,0.9764,0.9765,0.9766,0.9903,0.9906,0,0,0,0,0,0,0.9763,0.9764,0.9801,0.9801,0.9763,0.9766,0.9766,0.9777,0.9772,0.977,0.9759,0.9755,0.9764,0.9766,0.9768,0.9835,0.9765,0.9767,0.9768,0.9901,0.9904,0.9906,0,0,0,0,0,0,0.9762,0.9767,0.98,0.9781,0.9785,0.9769,0.9782,0.9778,0.9784,0.9772,0.9768,0.9768,0.9762,0.9765,0.9801,0.9834,0.9767,0.9769,0.9898,0.9902,0.9905,0.9968,0,0,0,0,0,0,0.9761,0.9767,0.9787,0.9782,0.9786,0.9833,0.9784,0.978,0.9788,0.9783,0.978,0.9777,0.9761,0.9799,0.9804,0.9836,0.9771,0.9895,0.99,0.9904,0.9963,0.9973,0.9982,0,0,0,0,0,0.976,0.9804,0.9789,0.9793,0.9811,0.9835,0.9838,0.9818,0.9791,0.9812,0.9804,0.9777,0.983,0.9803,0.9808,0.9841,0.9893,0.9899,0.9904,0.9958,0.9971,0.9981,0,0,0,0,0,0,0.9812,0.9803,0.9786,0.9829,0.9834,0.9827,0.9852,0.9831,0.9843,0.9837,0.9812,0.9812,0.9853,0.985,0.9821,0.9896,0.9857,0.9863,0.9897,0.9908,0.9918,0.9918,0.9773,0,0,0,0,0,0.9829,0.985,0.984,0.988,0.9883,0.9868,0.9877,0.9862,0.9865,0.9867,0.9862,0.9866,0.9884,0.9896,0.9911,0.9962,0.9962,0.9988,0.9997,1.0005,1.0011,1.0041,1.0053,0.9924,0.9924,0.9924,0,0,0.9864,0.9861,0.9875,0.989,0.9892,0.9915,0.9869,0.9894,0.9911,0.987,0.9905,0.9902,0.9905,0.995,0.997,0.9949,1.0047,1.0012,1.0018,1.002,1.0048,1.006,1.0071,0.9927,0.9927,0.9926,0,0,0.9939,0.9938,0.9973,0.9976,0.9979,0.9969,0.9978,0.9975,0.9971,1.0006,0.9977,0.9997,1.0027,1.0031,1.0037,1.0118,1.0095,1.0124,1.0174,1.0203,1.0213,1.0222,1.0253,1.0264,1.013,1.013,1.013,0,0.9982,1.0014,0.9993,1.0021,1.003,0.9995,1.0031,1.0035,1.0043,1.005,1.0027,1.0067,1.0066,1.0113,1.0133,1.0139,1.0149,1.0124,1.0214,1.0222,1.023,1.026,1.0271,1.0134,1.0133,1.0133,1.0133,0,1.0068,1.0092,1.0119,1.013,1.0141,1.0173,1.0157,1.0172,1.0156,1.0149,1.0186,1.0185,1.0201,1.021,1.0194,1.0256,1.0244,1.0218,1.0178,1.0247,1.0274,1.0285,1.0139,1.0138,1.0137,1.0136,0,0,1.0175,1.0175,1.0186,1.0192,1.0194,1.0212,1.0244,1.026,1.0274,1.0281,1.0308,1.0336,1.0313,1.032,1.0305,1.033,1.0398,1.0301,1.0301,1.0321,1.0468,1.0489,1.0502,1.0382,1.0384,1.0386,1.0468,0,1.025,1.0303,1.0287,1.0341,1.0364,1.0333,1.036,1.0365,1.036,1.0379,1.0373,1.0394,1.0361,1.0366,1.039,1.0384,1.0427,1.0378,1.0408,1.0409,1.0409,1.0516,1.0537,1.0615,1.0479,1.048,1.0482,0,1.0344,1.0357,1.0414,1.0416,1.0425,1.045,1.0466,1.0484,1.049,1.0485,1.0495,1.0475,1.0507,1.0467,1.0511,1.0479,1.049,1.049,1.0492,1.0495,1.045,1.0523,1.0639,1.0652,1.0498,1.0496,1.0495,0,1.0419,1.0451,1.049,1.0495,1.0498,1.0517,1.0519,1.0523,1.0535,1.0548,1.0556,1.0573,1.0582,1.0596,1.0582,1.0554,1.063,1.0588,1.0628,1.0629,1.0646,1.0645,1.0767,1.0651,1.0651,1.0651,1.065,0,1.0505,1.0542,1.0524,1.0548,1.059,1.057,1.0612,1.061,1.0615,1.0639,1.0612,1.0636,1.0615,1.0637,1.0626,1.0667,1.067,1.0668,1.0665,1.0671,1.0672,1.0679,1.0674,1.0654,1.0653,1.0653,1.0652,0,1.0596,1.0585,1.0626,1.0626,1.0627,1.0658,1.0658,1.0681,1.0675,1.0706,1.0712,1.0703,1.0727,1.0715,1.074,1.0733,1.0786,1.0774,1.0784,1.0782,1.0823,1.082,1.0955,1.0972,1.0844,1.0845,1.0846,0,1.0652,1.068,1.0684,1.0699,1.0703,1.0727,1.0739,1.0722,1.0737,1.0748,1.0771,1.0793,1.081,1.0852,1.0847,1.0867,1.0857,1.0903,1.086,1.0866,1.086,1.0859,1.0863,1.0912,1.0913,1.0915,1.0916,0,1.0754,1.0748,1.0767,1.0787,1.0803,1.0817,1.0828,1.0842,1.0826,1.0844,1.0869,1.0883,1.091,1.0934,1.0952,1.0954,1.0933,1.093,1.094,1.0947,1.0953,1.0953,1.0809,1.0926,1.0925,1.0925,1.0924,1.0924,1.083,1.0855,1.0862,1.0886,1.0893,1.0906,1.0928,1.0926,1.0947,1.0969,1.0957,1.0988,1.0996,1.1018,1.1024,1.1048,1.103,1.1045,1.1049,1.1053,1.106,1.0948,1.1051,1.1051,1.1051,1.105,1.105,0,1.0932,1.0936,1.0958,1.0976,1.0996,1.0975,1.0988,1.1005,1.1033,1.1042,1.1061,1.1092,1.1116,1.1114,1.1136,1.1156,1.1147,1.1162,1.1161,1.1163,1.1074,1.1063,1.117,1.1169,1.1169,1.1169,1.1169,1.1169,1.0988,1.1029,1.1025,1.1071,1.1074,1.1105,1.1114,1.1126,1.1134,1.117,1.119,1.1189,1.1195,1.1218,1.1239,1.1238,1.1248,1.1268,1.1264,1.1181,1.1169,1.1158,1.1148,1.127,1.127,1.1351,1.1352,1.1352]}]]